CW9878 Weather Reports


time (UTC)temp
F
wind
direction
speed
knots
gust
knots
rain 1hr
in
rain 24hr
in
rain mn
in
humidity
%
barometer
mb
20240527183313 81 254 4.3 13.9 0.00 0.00 0.00 9 1025.7
20240527182814 80 281 6.1 15.6 0.00 0.00 0.00 10 1025.8
20240527182322 80 273 7.0 16.5 0.00 0.00 0.00 9 1025.8
20240527181851 80 263 7.8 16.5 0.00 0.00 0.00 9 1025.8
20240527181312 80 280 7.8 15.6 0.00 0.00 0.00 9 1025.8
20240527180814 80 296 7.0 13.9 0.00 0.00 0.00 9 1026.0
20240527180316 80 291 5.2 14.8 0.00 0.00 0.00 8 1025.9
20240527175845 80 241 5.2 14.8 0.00 0.00 0.00 9 1026.0
20240527175332 80 254 5.2 16.5 0.00 0.00 0.00 8 1026.1
20240527174834 80 329 4.3 16.5 0.00 0.00 0.00 8 1026.1
20240527174322 80 290 5.2 19.1 0.00 0.00 0.00 9 1026.0
20240527173824 80 277 4.3 19.1 0.00 0.00 0.00 9 1026.2
20240527173326 79 237 5.2 19.1 0.00 0.00 0.00 8 1026.4
20240527172836 79 227 4.3 12.2 0.00 0.00 0.00 9 1026.3
20240527172317 78 251 4.3 15.6 0.00 0.00 0.00 9 1026.3
20240527171819 78 304 8.7 15.6 0.00 0.00 0.00 9 1026.2
20240527171348 79 327 7.0 12.2 0.00 0.00 0.00 9 1026.3
20240527170835 79 244 6.1 11.3 0.00 0.00 0.00 9 1026.3
20240527170317 77 336 4.3 14.8 0.00 0.00 0.00 9 1026.1
20240527165818 77 327 7.0 19.1 0.00 0.00 0.00 10 1026.3
20240527165326 77 340 8.7 19.1 0.00 0.00 0.00 9 1026.0
20240527164828 77 336 7.0 18.2 0.00 0.00 0.00 10 1026.1
20240527164337 77 333 8.7 14.8 0.00 0.00 0.00 9 1026.1
20240527163817 77 333 7.0 14.8 0.00 0.00 0.00 10 1026.3
20240527163346 77 272 7.0 14.8 0.00 0.00 0.00 10 1026.2
20240527162836 77 360 4.3 12.2 0.00 0.00 0.00 10 1026.2
20240527162316 78 234 4.3 13.0 0.00 0.00 0.00 10 1026.3
20240527161818 78 252 3.5 13.0 0.00 0.00 0.00 10 1026.2
20240527161321 78 231 3.5 13.0 0.00 0.00 0.00 10 1026.1
20240527160829 77 261 5.2 11.3 0.00 0.00 0.00 10 1026.2
20240527160331 77 232 2.6 10.4 0.00 0.00 0.00 9 1026.2
20240527155812 76 229 2.6 11.3 0.00 0.00 0.00 11 1026.1
20240527155321 77 322 5.2 11.3 0.00 0.00 0.00 10 1026.3
20240527154850 76 240 2.6 8.7 0.00 0.00 0.00 12 1026.0
20240527154311 76 268 1.7 6.1 0.00 0.00 0.00 13 1026.2
20240527153833 76 146 1.7 6.1 0.00 0.00 0.00 12 1026.1
20240527153323 76 240 2.6 5.2 0.00 0.00 0.00 12 1026.0